ES'HAIL 1

Last updated on Tue Sep 16 2025 00:02:47 GMT+0000 (Coordinated Universal Time)

1 39233U 13044A 25258.58960264 .00000126 00000+0 00000+0 0 9991 2 39233 0.0604 347.9033 0002198 195.1539 49.4866 1.00271134 43872
UTC large
Height (km)
Speed (km/s)
/
Latitude / Longitude
Inclination (degrees)
Orbital Period (minutes)
Azimuth
Elevation
Range (km)
Doppler Factor

Next 0 passes for location: London (51.5072 / 0.1276)

Sorry there are no passes over London.